This is the latest recevied weather packets stored in our database for station/object K6POO-1. If no packets are shown the sender has not sent any weather packets the latest 10 day(s).
| Time | Temp. | Humidity | Pressure | Rain* | Wind** | Luminosity | Snow |
|---|---|---|---|---|---|---|---|
| 1778123240 | 13.89° C | 83% | 1018.5 hPa | 0 mm | - | 3 W/m² | - |
| 1778122937 | 13.89° C | 83% | 1018.6 hPa | 0 mm | - | 5 W/m² | - |
| 1778122634 | 13.89° C | 84% | 1018.4 hPa | 0 mm | - | 7 W/m² | - |
| 1778122332 | 13.89° C | 84% | 1018.4 hPa | 0 mm | - | 11 W/m² | - |
| 1778122030 | 13.89° C | 84% | 1018.4 hPa | 0 mm | - | 14 W/m² | - |
| 1778121726 | 13.89° C | 83% | 1018.4 hPa | 0 mm | - | 18 W/m² | - |
| 1778121422 | 13.89° C | 83% | 1018.4 hPa | 0 mm | - | 22 W/m² | - |
| 1778121119 | 13.89° C | 82% | 1018.3 hPa | 0 mm | - | 25 W/m² | - |
| 1778120816 | 14.44° C | 80% | 1018.4 hPa | 0 mm | - | 29 W/m² | - |
| 1778120512 | 14.44° C | 80% | 1018.2 hPa | 0 mm | - | 32 W/m² | - |
| 1778120209 | 15° C | 78% | 1018.2 hPa | 0 mm | - | 35 W/m² | - |
| 1778119904 | 15° C | 78% | 1018.3 hPa | 0 mm | - | 38 W/m² | - |
| 1778119603 | 15° C | 78% | 1018.2 hPa | 0 mm | - | 43 W/m² | - |
| 1778119298 | 15° C | 77% | 1018.2 hPa | 0 mm | - | 47 W/m² | - |
| 1778118997 | 15.56° C | 77% | 1018.2 hPa | 0 mm | - | 50 W/m² | - |
| 1778118694 | 15.56° C | 77% | 1018.4 hPa | 0 mm | - | 54 W/m² | - |
| 1778118391 | 16.11° C | 75% | 1018.4 hPa | 0 mm | - | 57 W/m² | - |
| 1778118086 | 16.11° C | 75% | 1018.4 hPa | 0 mm | - | 63 W/m² | - |
| 1778117783 | 15.56° C | 76% | 1018.2 hPa | 0 mm | - | 76 W/m² | - |
| 1778117480 | 15.56° C | 75% | 1018.3 hPa | 0 mm | - | 86 W/m² | - |
| 1778117178 | 16.11° C | 75% | 1018.3 hPa | 0 mm | - | 97 W/m² | - |
| 1778116873 | 16.11° C | 74% | 1018.2 hPa | 0 mm | - | 108 W/m² | - |
| 1778116571 | 16.11° C | 73% | 1018.4 hPa | 0 mm | - | 121 W/m² | - |
| 1778116267 | 16.67° C | 73% | 1018.4 hPa | 0 mm | - | 134 W/m² | - |
| 1778115962 | 16.67° C | 73% | 1018.2 hPa | 0 mm | - | 150 W/m² | - |
* Rain latest hour (hover to see other rain measurements)
** Current wind speed in m/s (hover to see current wind gust speed)